Stations météo

réclame
Mon MeteoGroup
Finisterre, Espagne (8040): Température de l'air & dewpoint: 17.10.2018 12:00:00 - 23.10.2018 12:00:00 (CEST)Finisterre, Espagne (8040): Vitesse du vent & gusts: 17.10.2018 12:00:00 - 23.10.2018 12:00:00 (CEST)Finisterre, Espagne (8040): Direction du vent: 17.10.2018 12:00:00 - 23.10.2018 12:00:00 (CEST)Finisterre, Espagne (8040): reduced air pressure: 17.10.2018 12:00:00 - 23.10.2018 12:00:00 (CEST)Finisterre, Espagne (8040): visibility: 17.10.2018 12:00:00 - 23.10.2018 12:00:00 (CEST)Finisterre, Espagne (8040): Ensoleillement: 17.10.2018 12:00:00 - 23.10.2018 12:00:00 (CEST)Finisterre, Espagne (8040): Quantités de précipitations: 17.10.2018 12:00:00 - 23.10.2018 12:00:00 (CEST)
Date & Time tt [°C] td [°C] ff [km/h] ff [knt] fx [km/h] fx [knt] dd ppp [hPa] vv [km] sd [min] rr [mm]
23.10.2018 12:00:00 - - - - - - - - - - -
23.10.2018 11:00:00 16,8 6,5 29 16 51 27 ESE 1024,4 20 60 0,0
23.10.2018 10:00:00 16,4 5,3 35 19 52 28 E 1024,0 20 25 0,0
23.10.2018 09:00:00 15,4 6,4 38 20 54 29 E 1023,3 20 0 0,0
23.10.2018 08:00:00 16,1 6,2 36 19 60 33 E 1023,3 20 0 -
23.10.2018 07:00:00 15,9 6,5 32 17 64 35 E 1023,6 20 0 0,0
23.10.2018 06:00:00 15,7 8,0 38 21 70 38 E 1023,6 20 0 0,0
23.10.2018 05:00:00 15,7 9,3 47 25 73 40 E 1023,2 20 0 0,0
23.10.2018 04:00:00 15,5 9,6 45 24 81 44 E 1023,8 19 0 0,0
23.10.2018 03:00:00 15,4 9,7 46 25 84 46 E 1023,5 20 0 0,0
23.10.2018 02:00:00 15,3 9,2 46 25 79 43 E 1023,5 20 0 -
23.10.2018 01:00:00 15,4 8,8 50 27 81 44 E 1023,6 20 0 0,0
23.10.2018 00:00:00 15,7 8,9 49 27 81 44 E 1023,2 20 0 0,0
22.10.2018 23:00:00 15,1 9,2 40 22 86 47 ENE 1023,4 18 0 0,0
22.10.2018 22:00:00 15,4 9,3 50 27 80 43 ENE 1023,2 17 0 0,0
22.10.2018 21:00:00 15,4 9,3 41 22 90 49 E 1023,4 16 0 0,0
22.10.2018 20:00:00 15,9 10,0 42 23 72 39 ENE 1022,8 16 32 -
22.10.2018 19:00:00 17,5 10,6 29 15 60 33 ENE 1023,1 15 52 0,0
22.10.2018 18:00:00 19,0 11,1 14 8 51 27 NE 1023,3 16 60 0,0
22.10.2018 17:00:00 20,6 10,4 16 8 42 23 ENE 1023,0 8 60 0,0
22.10.2018 16:00:00 21,3 10,2 16 9 42 23 ENE 1022,8 20 60 0,0
22.10.2018 15:00:00 20,6 9,6 15 8 57 31 E 1022,9 20 60 0,0
22.10.2018 14:00:00 18,7 10,3 26 14 51 28 NE 1023,2 18 58 -
22.10.2018 13:00:00 17,3 9,9 20 11 66 36 NE 1024,1 18 58 0,0
22.10.2018 12:00:00 16,1 9,6 43 23 74 40 E 1023,1 14 49 0,0
22.10.2018 11:00:00 15,8 9,0 40 22 64 35 E 1022,9 16 60 0,0
22.10.2018 10:00:00 15,2 9,9 6 4 39 21 NE 1023,2 15 13 0,0
22.10.2018 09:00:00 14,8 10,8 15 8 39 21 ENE 1022,4 14 0 0,0
22.10.2018 08:00:00 16,1 10,9 26 14 47 25 ENE 1021,9 14 0 -
22.10.2018 07:00:00 15,5 11,7 21 11 67 36 NE 1021,7 8 0 0,0
22.10.2018 06:00:00 16,0 11,8 46 25 64 35 E 1020,6 13 0 0,0
22.10.2018 05:00:00 15,8 12,3 45 25 67 36 E 1020,6 11 0 0,0
22.10.2018 04:00:00 16,1 12,4 44 24 60 32 E 1020,7 12 0 0,0
22.10.2018 03:00:00 16,1 12,4 42 23 60 33 E 1020,7 11 0 0,0
22.10.2018 02:00:00 16,6 12,1 41 22 64 35 E 1020,6 13 0 -
22.10.2018 01:00:00 18,2 11,6 36 20 53 29 E 1020,4 16 0 0,0
22.10.2018 00:00:00 18,9 11,7 34 18 49 26 E 1020,2 16 0 0,0
21.10.2018 23:00:00 19,8 12,1 31 17 51 28 E 1019,8 16 0 0,0
21.10.2018 22:00:00 21,3 12,7 30 16 42 23 E 1019,5 16 0 0,0
21.10.2018 21:00:00 20,3 13,8 29 15 43 23 ENE 1019,6 14 0 0,0
21.10.2018 20:00:00 19,8 13,3 26 14 37 20 ENE 1019,4 15 0 -
21.10.2018 19:00:00 20,5 13,9 19 10 28 15 ENE 1018,6 13 58 0,0
21.10.2018 18:00:00 21,3 14,4 19 11 28 15 ENE 1018,5 14 60 0,0
21.10.2018 17:00:00 21,7 14,8 13 7 22 12 NE 1018,8 11 60 0,0
21.10.2018 16:00:00 22,9 15,0 12 6 20 11 ENE 1018,7 17 53 0,0
21.10.2018 15:00:00 21,5 14,1 11 6 22 12 ENE 1019,3 19 4 0,0
21.10.2018 14:00:00 22,2 13,1 9 5 30 16 E 1019,8 17 16 -
21.10.2018 13:00:00 22,5 12,4 12 7 25 14 ESE 1019,9 17 60 0,0
21.10.2018 12:00:00 21,2 12,1 7 4 23 12 ESE 1020,3 19 24 0,0
21.10.2018 11:00:00 19,5 11,0 17 9 27 14 ESE 1020,0 18 0 0,0
21.10.2018 10:00:00 18,5 11,1 6 3 14 8 E 1020,0 20 0 0,0
21.10.2018 09:00:00 18,1 10,4 9 5 23 12 ESE 1019,2 19 0 0,0
21.10.2018 08:00:00 18,0 10,6 10 6 31 17 ESE 1019,0 19 0 -
21.10.2018 07:00:00 18,4 10,8 21 11 35 19 ESE 1018,7 20 0 0,0
21.10.2018 06:00:00 18,5 10,9 23 12 36 20 ESE 1018,5 18 0 0,0
21.10.2018 05:00:00 19,4 10,6 17 9 38 20 ESE 1018,6 19 0 0,0
21.10.2018 04:00:00 19,2 10,8 24 13 41 22 ESE 1018,7 18 0 0,0
21.10.2018 03:00:00 18,0 11,1 18 10 37 20 ESE 1018,9 15 0 0,0
21.10.2018 02:00:00 18,6 11,2 29 16 44 24 E 1018,9 16 0 -
21.10.2018 01:00:00 17,2 11,2 21 12 46 25 E 1019,4 14 0 0,0
21.10.2018 00:00:00 16,2 11,6 31 17 50 27 E 1019,3 12 0 0,0
20.10.2018 23:00:00 16,3 11,7 27 14 64 35 E 1019,5 11 0 0,0
20.10.2018 22:00:00 16,2 11,8 41 22 56 31 E 1018,8 12 0 0,0
20.10.2018 21:00:00 16,1 11,9 44 24 64 34 E 1018,7 10 0 0,0
20.10.2018 20:00:00 16,8 11,9 34 18 50 27 E 1018,5 12 23 -
20.10.2018 19:00:00 17,5 12,8 24 13 37 20 N 1018,7 9 52 0,0
20.10.2018 18:00:00 19,4 13,4 10 5 37 20 N 1018,7 9 60 0,0
20.10.2018 17:00:00 18,6 13,7 27 15 42 23 NE 1018,6 13 60 0,0
20.10.2018 16:00:00 18,8 13,5 17 9 39 21 NNE 1019,3 10 60 0,0
20.10.2018 15:00:00 20,1 12,8 18 10 48 26 NE 1019,4 20 60 0,0
20.10.2018 14:00:00 19,2 12,6 20 11 49 26 NE 1020,8 13 57 -
20.10.2018 13:00:00 19,2 12,4 9 5 61 33 SE 1021,4 12 60 0,0
20.10.2018 12:00:00 17,5 11,3 34 18 56 30 ENE 1020,7 16 57 0,0
20.10.2018 11:00:00 16,5 11,0 13 7 56 30 E 1020,9 14 60 0,0
20.10.2018 10:00:00 16,1 10,2 41 22 73 40 E 1019,5 15 26 0,0
20.10.2018 09:00:00 16,0 10,0 45 24 66 36 E 1018,4 15 0 0,0
20.10.2018 08:00:00 15,0 10,8 16 9 56 31 ESE 1019,1 15 0 -
20.10.2018 07:00:00 15,1 10,6 13 7 37 20 E 1018,9 14 0 0,0
20.10.2018 06:00:00 14,7 10,9 13 7 27 14 E 1018,8 13 0 0,0
20.10.2018 05:00:00 15,0 11,6 8 4 56 31 WNW 1019,3 10 0 0,0
20.10.2018 04:00:00 15,2 11,8 33 18 66 36 ENE 1018,8 11 0 0,0
20.10.2018 03:00:00 15,2 12,1 30 16 68 37 E 1018,8 11 0 0,0
20.10.2018 02:00:00 15,3 12,2 40 21 79 43 ENE 1018,9 10 0 -
20.10.2018 01:00:00 15,3 12,4 43 23 72 39 ENE 1017,7 9 0 0,0
20.10.2018 00:00:00 15,0 12,6 34 18 63 34 ENE 1018,3 9 0 0,0
19.10.2018 23:00:00 15,6 12,3 20 11 56 30 ENE 1019,1 10 0 0,0
19.10.2018 22:00:00 15,8 12,7 30 16 63 34 ENE 1018,3 11 0 0,0
19.10.2018 21:00:00 15,5 13,2 11 6 42 23 ESE 1018,2 10 0 0,0
19.10.2018 20:00:00 - - - - - - - - - - -
19.10.2018 19:00:00 16,7 13,8 20 11 41 22 NE 1017,5 9 23 0,0
19.10.2018 18:00:00 17,5 14,0 8 4 50 27 NNE 1017,6 9 13 0,0
19.10.2018 17:00:00 17,9 14,2 22 12 54 29 NE 1017,1 9 58 0,0
19.10.2018 16:00:00 19,1 13,9 16 9 47 25 NE 1017,1 13 58 0,0
19.10.2018 15:00:00 18,2 14,5 23 13 47 26 NNE 1017,7 8 50 0,0
19.10.2018 14:00:00 18,5 14,1 24 13 56 30 NE 1018,2 11 56 -
19.10.2018 13:00:00 17,9 14,0 17 9 45 25 NE 1018,3 12 50 0,0
19.10.2018 12:00:00 17,5 14,0 11 6 58 32 E 1018,5 13 46 0,0
19.10.2018 11:00:00 16,5 13,9 15 8 36 19 NE 1018,2 12 40 0,0
19.10.2018 10:00:00 15,6 13,7 11 6 44 24 ENE 1017,8 8 23 0,0
19.10.2018 09:00:00 14,8 13,4 15 8 40 22 E 1017,5 6 0 0,0
19.10.2018 08:00:00 14,5 13,3 22 12 50 27 NE 1017,6 6 0 -
19.10.2018 07:00:00 14,6 13,4 26 14 49 26 NNE 1017,1 6 0 0,0
19.10.2018 06:00:00 14,6 13,0 28 15 48 26 NE 1016,7 8 0 0,0
19.10.2018 05:00:00 14,4 13,3 26 14 48 26 NE 1016,7 6 0 0,0
19.10.2018 04:00:00 14,5 13,6 38 21 67 36 NE 1017,5 4,5 0 0,0
19.10.2018 03:00:00 14,5 13,6 48 26 71 38 NNE 1017,2 4,0 0 0,0
19.10.2018 02:00:00 14,3 13,1 41 22 66 35 NE 1017,0 6 0 -
19.10.2018 01:00:00 14,4 13,2 44 24 71 38 NE 1017,2 7 0 0,0
19.10.2018 00:00:00 14,4 13,3 35 19 67 36 NE 1017,3 6 0 0,0
18.10.2018 23:00:00 14,6 13,7 45 24 70 38 NNE 1017,0 5 0 0,0
18.10.2018 22:00:00 14,4 13,7 49 27 67 36 NE 1016,3 3,1 0 0,0
18.10.2018 21:00:00 14,3 13,4 32 17 59 32 NNE 1016,6 3,8 0 0,0
18.10.2018 20:00:00 14,4 13,2 35 19 52 28 NE 1016,1 7 0 -
18.10.2018 19:00:00 14,6 13,2 31 17 55 30 NNE 1015,3 8 8 0,0
18.10.2018 18:00:00 14,9 13,0 29 15 62 34 NNE 1015,5 8 16 0,0
18.10.2018 17:00:00 15,5 13,0 35 19 54 29 NNE 1015,4 10 27 0,0
18.10.2018 16:00:00 16,7 12,8 31 17 68 37 NNE 1015,0 9 58 0,0
18.10.2018 15:00:00 17,1 12,6 35 19 62 34 NE 1015,2 14 59 0,0
18.10.2018 14:00:00 16,2 12,7 33 18 58 31 NE 1016,4 12 33 -
18.10.2018 13:00:00 15,1 12,6 32 18 56 30 NNE 1016,5 11 50 0,0
18.10.2018 12:00:00 15,4 12,8 27 14 60 33 NE 1016,8 10 56 0,0
18.10.2018 11:00:00 14,2 12,2 40 22 62 34 NE 1016,1 16 60 0,0
18.10.2018 10:00:00 13,8 12,0 44 24 77 42 ENE 1015,1 20 21 0,0
18.10.2018 09:00:00 13,7 12,4 42 23 74 40 ENE 1014,2 20 0 0,0
18.10.2018 08:00:00 13,7 12,7 42 23 67 36 NE 1013,8 19 0 -
18.10.2018 07:00:00 13,4 12,6 32 17 55 30 NE 1013,8 13 0 0,0
18.10.2018 06:00:00 13,3 12,5 37 20 60 33 NE 1013,3 9 0 0,0
18.10.2018 05:00:00 13,3 12,6 35 19 56 30 NE 1013,4 8 0 0,0
18.10.2018 04:00:00 13,1 12,4 31 17 52 28 NNE 1013,6 3,9 0 0,0
18.10.2018 03:00:00 12,9 12,3 36 19 59 32 NNE 1014,2 3,1 0 0,0
18.10.2018 02:00:00 12,6 12,0 39 21 63 34 NNE 1014,4 4,2 0 -
18.10.2018 01:00:00 12,2 11,6 40 22 70 38 NNE 1014,4 4,9 0 0,4
18.10.2018 00:00:00 12,2 11,6 39 21 68 37 NNE 1015,0 3,5 0 0,8
17.10.2018 23:00:00 12,1 11,4 42 23 78 42 NNE 1015,3 0,1 0 0,8
17.10.2018 22:00:00 11,7 11,1 41 22 71 39 NNE 1014,9 1,4 0 0,0
17.10.2018 21:00:00 11,9 11,3 50 27 82 44 NNE 1014,2 0,3 0 0,0
17.10.2018 20:00:00 12,6 12,0 35 19 62 33 N 1014,6 0,9 0 -
17.10.2018 19:00:00 12,1 11,4 34 18 60 33 N 1014,8 0,6 0 0,0
17.10.2018 18:00:00 12,4 11,8 37 20 58 31 NNE 1014,7 3,5 2 0,0
17.10.2018 17:00:00 12,6 12,0 36 20 57 31 N 1014,9 9 28 0,0
17.10.2018 16:00:00 12,6 12,0 39 21 59 32 NNE 1015,4 0,1 1 0,4
17.10.2018 15:00:00 12,2 11,6 42 23 63 34 N 1016,0 0,2 0 1,4
17.10.2018 14:00:00 12,5 11,7 29 16 48 26 N 1016,6 0,1 0 -
17.10.2018 13:00:00 13,0 12,1 5 3 9 5 W 1017,1 0,2 0 3,6
17.10.2018 12:00:00 12,7 11,8 13 7 20 11 W 1017,2 0,1 0 2,0

tt = Température de l'air
td = dewpoint
ff = Vitesse du vent
fx = gusts
dd = Direction du vent
ppp = reduced air pressure
vv = visibility
sd = Ensoleillement
rr = Quantités de précipitations

stations d'obs. à proximité